Regional Weather Roundup
Issued by NWS Albany, NY

Home | Current Version | Previous Version | Graphics & Text | Print | Product List | Glossary Off
Versions: 1 2 3 4 5 6 7 8 9 10 11 12 13 14 15 16 17 18 19 20 21 22 23 24 25 26 27 28 29 30 31 32 33 34 35 36 37 38 39 40 41 42 43 44 45 46 47 48 49 50

000
ASUS41 KALY 240810
RWRALY

NEW YORK STATE HOURLY WEATHER ROUNDUP
NATIONAL WEATHER SERVICE ALBANY NY
400 AM EDT THU JUL 24 2014

NOTE: "FAIR" INDICATES FEW OR NO CLOUDS BELOW 12,000 FEET WITH NO
SIGNIFICANT WEATHER AND/OR NO OBSTRUCTIONS TO VISIBILITY.

NYZ032-033-038>043-046>054-057>066-NYZ062>081-240900-
EAST


CITY           SKY/WX    TMP DP  RH WIND       PRES   REMARKS
ALBANY         CLOUDY    67  62  84 NW7       29.84R
GLENS FALLS    MOCLDY    65  58  78 NW7       29.84R
POUGHKEEPSIE   CLOUDY    71  68  90 CALM      29.82R
NEWBURGH       CLOUDY    68  66  94 CALM      29.83S
MONTGOMERY     CLOUDY    67  65  93 SW3       29.83R
WHITE PLAINS   MOCLDY    71  67  87 N9        29.80F
ISLIP          PTCLDY    74  68  81 N8        29.77S
NEW YORK CITY  MOCLDY    74  67  78 NW8       29.79S
CENTRAL PARK   MOCLDY    73  66  78 MISG      29.83S
$$

NYZ005>009-017-018-044>046-055-056-240900-
CENTRAL


CITY           SKY/WX    TMP DP  RH WIND       PRES   REMARKS
FULTON         CLOUDY    63  51  65 N13       29.95R
SYRACUSE       CLOUDY    65  54  67 N10       29.93R
ROME           CLOUDY    61  57  87 N3        29.92S
ELMIRA         CLOUDY    64  57  78 N6        29.94S
BINGHAMTON     CLOUDY    60  57  89 N10       29.92S
MONTICELLO     MOCLDY    63  61  94 NW9       29.89R
$$

NYZ026>034-041>043-240900-
NORTH


CITY           SKY/WX    TMP DP  RH WIND       PRES   REMARKS
WATERTOWN      CLOUDY    60  47  61 VRB5      29.95R
FORT DRUM      NOT AVBL
MASSENA        MOCLDY    58  48  69 N7        29.94R
SARANAC LAKE   MOCLDY    53  50  89 CALM      29.91R
PLATTSBURGH    LGT RAIN  62  51  67 N12       29.88R
$$

NYZ001>004-010>016-019>021-240900-
WEST


CITY           SKY/WX    TMP DP  RH WIND       PRES   REMARKS
NIAGARA FALLS  PTCLDY    60  53  77 N7        30.00R
BUFFALO        MOCLDY    62  54  74 N8        29.99S
DUNKIRK        CLOUDY    63  54  72 N8        30.00S
JAMESTOWN      CLOUDY    57  54  88 N3        30.01F
WELLSVILLE     CLOUDY    59  54  83 NW7       30.00F
ROCHESTER      PTCLDY    63  52  67 N10       29.98R
PENN YAN       CLOUDY    64  56  75 NW6       29.95F
$$

             KEY
       WCI = WIND CHILL INDEX
       VSB = VISIBILITY
       HX  = HEAT INDEX
$$


USA.gov is the U.S. government's official web portal to all federal, state and local government web resources and services.